Back to catalog

MIDAS 3

AliveMilitaryPO
NORAD 163·PAYLOAD·🇺🇸 United States

Launched Jul 12, 1961 from Vandenberg Space Force Base

Loading…

Next Passes (next 24 hours)

TLE

FreshSource: Space-Track

Epoch: Sep 14, 2026, 06:10 UTC

1 00163U 61018A   26257.25750102 -.00000016  00000-0 -62959-2 0  9992
2 00163  91.1284 209.0873 0102929  58.1170 302.9670  8.91839431121952

Track MIDAS 3 in real time with AllMySat

Download on the App Store